• în Republica Moldova
  • Lista ţărilor
  • Pe 7 zile
  • Temperatura apei
  • Hartă satelitară
  • Meteo pe hartă
  • Widget-uri
  • user-avatar
    Intrare

    Meteo pe oră la Stublevka

    Astăzi, 25 Mai, Vineri

    Timp Temperatura Precipitaţii Vânt Presiune Umiditate
    00:00 +13°C° 0 mm 4 m/s 742 mmHg 87%
    01:00 +12°C° 0 mm 4 m/s 742 mmHg 88%
    02:00 +12°C° 0 mm 3 m/s 742 mmHg 92%
    03:00 +12°C° 0 mm 4 m/s 743 mmHg 92%
    04:00 +12°C° 0 mm 4 m/s 743 mmHg 92%
    05:00 +13°C° 0 mm 5 m/s 743 mmHg 92%
    06:00 +14°C° 0 mm 5 m/s 743 mmHg 87%
    07:00 +15°C° 0 mm 6 m/s 744 mmHg 82%
    08:00 +16°C° 0 mm 6 m/s 744 mmHg 76%
    09:00 +17°C° 0 mm 6 m/s 744 mmHg 72%
    10:00 +18°C° 0 mm 7 m/s 744 mmHg 68%
    11:00 +18°C° 0 mm 7 m/s 745 mmHg 63%
    12:00 +18°C° 0 mm 7 m/s 745 mmHg 60%
    13:00 +18°C° 0 mm 7 m/s 745 mmHg 57%
    14:00 +18°C° 0 mm 7 m/s 745 mmHg 55%
    15:00 +19°C° 0 mm 6 m/s 745 mmHg 57%
    16:00 +17°C° 0 mm 6 m/s 746 mmHg 59%
    17:00 +16°C° 0 mm 6 m/s 746 mmHg 61%
    18:00 +15°C° 0 mm 5 m/s 746 mmHg 63%
    19:00 +14°C° 0 mm 5 m/s 747 mmHg 65%
    20:00 +12°C° 0 mm 5 m/s 747 mmHg 68%
    21:00 +12°C° 0 mm 5 m/s 748 mmHg 68%
    22:00 +11°C° 0 mm 4 m/s 748 mmHg 68%
    23:00 +10°C° 0 mm 4 m/s 749 mmHg 68%

    Mâine, 26 Mai, Sâmbătă

    Timp Temperatura Precipitaţii Vânt Presiune Umiditate
    00:00 +10°C° 0 mm 4 m/s 749 mmHg 68%
    01:00 +8°C° 0 mm 4 m/s 750 mmHg 68%
    02:00 +7°C° 0 mm 4 m/s 750 mmHg 68%
    03:00 +7°C° 0 mm 4 m/s 751 mmHg 70%
    04:00 +7°C° 0 mm 4 m/s 751 mmHg 71%
    05:00 +8°C° 0 mm 3 m/s 752 mmHg 73%
    06:00 +10°C° 0 mm 4 m/s 752 mmHg 67%
    07:00 +11°C° 0 mm 4 m/s 752 mmHg 61%
    08:00 +13°C° 0 mm 5 m/s 753 mmHg 55%
    09:00 +14°C° 0 mm 5 m/s 753 mmHg 53%
    10:00 +14°C° 0 mm 5 m/s 753 mmHg 51%
    11:00 +15°C° 0 mm 5 m/s 753 mmHg 49%
    12:00 +15°C° 0 mm 5 m/s 753 mmHg 49%
    13:00 +16°C° 0 mm 5 m/s 753 mmHg 49%
    14:00 +17°C° 0 mm 4 m/s 753 mmHg 50%
    15:00 +17°C° 0 mm 4 m/s 752 mmHg 52%
    16:00 +17°C° 0 mm 3 m/s 752 mmHg 54%
    17:00 +17°C° 0 mm 3 m/s 752 mmHg 56%
    18:00 +15°C° 0 mm 2 m/s 752 mmHg 60%
    19:00 +13°C° 0 mm 2 m/s 752 mmHg 65%
    20:00 +10°C° 0 mm 2 m/s 752 mmHg 70%
    21:00 +11°C° 0 mm 1 m/s 752 mmHg 71%
    22:00 +10°C° 0 mm 1 m/s 753 mmHg 72%
    23:00 +9°C° 0 mm 1 m/s 753 mmHg 73%

    Poimâine, 27 Mai, Duminică

    Timp Temperatura Precipitaţii Vânt Presiune Umiditate
    00:00 +9°C° 0 mm 1 m/s 753 mmHg 74%
    01:00 +9°C° 0 mm 1 m/s 753 mmHg 75%
    02:00 +8°C° 0 mm 1 m/s 753 mmHg 76%
    03:00 +9°C° 0 mm 1 m/s 753 mmHg 76%
    04:00 +9°C° 0 mm 1 m/s 753 mmHg 76%
    05:00 +10°C° 0 mm 1 m/s 753 mmHg 76%
    06:00 +12°C° 0 mm 1 m/s 753 mmHg 71%
    07:00 +13°C° 0 mm 1 m/s 753 mmHg 65%
    08:00 +15°C° 0 mm 2 m/s 752 mmHg 59%
    09:00 +16°C° 0 mm 2 m/s 752 mmHg 55%
    10:00 +17°C° 0 mm 2 m/s 752 mmHg 52%
    11:00 +18°C° 0 mm 2 m/s 751 mmHg 48%
    12:00 +18°C° 0 mm 2 m/s 751 mmHg 48%
    13:00 +19°C° 0 mm 2 m/s 750 mmHg 48%
    14:00 +19°C° 0 mm 3 m/s 750 mmHg 48%
    15:00 +19°C° 0 mm 3 m/s 749 mmHg 52%
    16:00 +19°C° 0 mm 3 m/s 749 mmHg 56%
    17:00 +19°C° 0 mm 3 m/s 748 mmHg 59%
    18:00 +17°C° 0 mm 3 m/s 748 mmHg 64%
    19:00 +14°C° 0 mm 3 m/s 748 mmHg 69%
    20:00 +14°C° 0 mm 2 m/s 748 mmHg 74%
    21:00 +12°C° 0 mm 3 m/s 748 mmHg 75%
    22:00 +11°C° 0 mm 3 m/s 748 mmHg 77%
    23:00 +11°C° 0 mm 3 m/s 747 mmHg 78%

    28 Mai, Luni

    Timp Temperatura Precipitaţii Vânt Presiune Umiditate
    00:00 +11°C° 0 mm 3 m/s 748 mmHg 79%
    01:00 +10°C° 0 mm 3 m/s 748 mmHg 80%
    02:00 +10°C° 0 mm 3 m/s 748 mmHg 82%
    03:00 +10°C° 0 mm 3 m/s 748 mmHg 83%
    04:00 +11°C° 0 mm 3 m/s 748 mmHg 85%
    05:00 +12°C° 0 mm 2 m/s 748 mmHg 86%
    06:00 +13°C° 0 mm 3 m/s 748 mmHg 79%
    07:00 +16°C° 0 mm 3 m/s 749 mmHg 73%
    08:00 +17°C° 0 mm 4 m/s 749 mmHg 66%
    09:00 +18°C° 0 mm 4 m/s 749 mmHg 61%
    10:00 +19°C° 0 mm 4 m/s 749 mmHg 57%
    11:00 +20°C° 0 mm 4 m/s 749 mmHg 52%
    12:00 +20°C° 0 mm 4 m/s 749 mmHg 51%
    13:00 +20°C° 0 mm 4 m/s 749 mmHg 51%
    14:00 +20°C° 0 mm 4 m/s 749 mmHg 51%
    15:00 +20°C° 0 mm 4 m/s 749 mmHg 53%
    16:00 +19°C° 0 mm 3 m/s 749 mmHg 56%
    17:00 +19°C° 0 mm 3 m/s 749 mmHg 59%
    18:00 +17°C° 0 mm 3 m/s 749 mmHg 63%
    19:00 +14°C° 0 mm 3 m/s 750 mmHg 66%
    20:00 +12°C° 0 mm 3 m/s 750 mmHg 70%
    21:00 +11°C° 0 mm 3 m/s 750 mmHg 69%
    22:00 +10°C° 0 mm 3 m/s 751 mmHg 68%
    23:00 +9°C° 0 mm 2 m/s 751 mmHg 68%

    29 Mai, Marţi

    Timp Temperatura Precipitaţii Vânt Presiune Umiditate
    00:00 +9°C° 0 mm 2 m/s 751 mmHg 68%
    01:00 +8°C° 0 mm 2 m/s 751 mmHg 69%
    02:00 +9°C° 0 mm 1 m/s 752 mmHg 70%
    03:00 +9°C° 0 mm 1 m/s 752 mmHg 70%
    04:00 +10°C° 0 mm 1 m/s 752 mmHg 70%
    05:00 +10°C° 0 mm 1 m/s 752 mmHg 71%
    06:00 +12°C° 0 mm 1 m/s 752 mmHg 65%
    07:00 +14°C° 0 mm 2 m/s 752 mmHg 59%
    08:00 +16°C° 0 mm 2 m/s 752 mmHg 53%
    09:00 +17°C° 0 mm 2 m/s 752 mmHg 51%
    10:00 +18°C° 0 mm 2 m/s 751 mmHg 49%
    11:00 +20°C° 0 mm 3 m/s 751 mmHg 47%
    12:00 +20°C° 0 mm 3 m/s 751 mmHg 47%
    13:00 +21°C° 0 mm 3 m/s 750 mmHg 47%
    14:00 +21°C° 0 mm 3 m/s 750 mmHg 48%
    15:00 +21°C° 0 mm 3 m/s 750 mmHg 51%
    16:00 +21°C° 0 mm 3 m/s 749 mmHg 55%
    17:00 +21°C° 0 mm 2 m/s 749 mmHg 59%
    18:00 +19°C° 0 mm 2 m/s 749 mmHg 63%
    19:00 +17°C° 0 mm 2 m/s 749 mmHg 67%
    20:00 +16°C° 0 mm 2 m/s 748 mmHg 71%
    21:00 +15°C° 0 mm 2 m/s 748 mmHg 72%
    22:00 +14°C° 0 mm 2 m/s 748 mmHg 73%
    23:00 +14°C° 0 mm 2 m/s 748 mmHg 74%

    30 Mai, Miercuri

    Timp Temperatura Precipitaţii Vânt Presiune Umiditate
    00:00 +12°C° 0 mm 3 m/s 748 mmHg 75%
    01:00 +12°C° 0 mm 3 m/s 748 mmHg 76%
    02:00 +11°C° 0 mm 3 m/s 747 mmHg 77%
    03:00 +12°C° 0 mm 3 m/s 747 mmHg 78%
    04:00 +12°C° 0 mm 3 m/s 747 mmHg 79%
    05:00 +12°C° 0 mm 4 m/s 747 mmHg 80%
    06:00 +14°C° 0 mm 4 m/s 746 mmHg 75%
    07:00 +17°C° 0 mm 4 m/s 746 mmHg 71%
    08:00 +19°C° 0 mm 5 m/s 745 mmHg 66%
    09:00 +20°C° 0 mm 5 m/s 745 mmHg 64%
    10:00 +21°C° 0 mm 6 m/s 745 mmHg 61%
    11:00 +23°C° 0 mm 6 m/s 744 mmHg 59%
    12:00 +23°C° 0 mm 7 m/s 744 mmHg 58%
    13:00 +23°C° 0 mm 7 m/s 743 mmHg 58%
    14:00 +24°C° 0 mm 7 m/s 742 mmHg 57%
    15:00 +24°C° 0 mm 6 m/s 742 mmHg 61%
    16:00 +23°C° 0 mm 6 m/s 741 mmHg 64%
    17:00 +23°C° 0 mm 5 m/s 741 mmHg 67%
    18:00 +22°C° 0 mm 5 m/s 741 mmHg 72%
    19:00 +20°C° 0 mm 5 m/s 741 mmHg 76%
    20:00 +19°C° 0 mm 4 m/s 740 mmHg 80%
    21:00 +18°C° 0 mm 4 m/s 740 mmHg 82%
    22:00 +17°C° 0 mm 5 m/s 740 mmHg 84%
    23:00 +16°C° 0 mm 5 m/s 739 mmHg 86%
    Arată mai mult